• In Russia
  • List of Countries
  • For 7 days
  • Water Temperature
  • Weather Map
  • Weather Widgets
  • user-avatar
    Login

    Hourly Weather Batina

    Today, 29 May, Friday

    Time Temperature Precipitation Wind Pressure Humidity
    00:00 +18°C° 0 mm 2 mps 672 mmHg 54%
    01:00 +18°C° 0 mm 3 mps 672 mmHg 55%
    02:00 +17°C° 0 mm 3 mps 672 mmHg 55%
    03:00 +17°C° 0 mm 3 mps 672 mmHg 56%
    04:00 +18°C° 0 mm 3 mps 672 mmHg 55%
    05:00 +18°C° 0 mm 4 mps 672 mmHg 53%
    06:00 +19°C° 0 mm 4 mps 672 mmHg 51%
    07:00 +19°C° 0.2 mm 5 mps 672 mmHg 51%
    08:00 +20°C° 0.2 mm 5 mps 672 mmHg 50%
    09:00 +21°C° 0.2 mm 6 mps 673 mmHg 49%
    10:00 +22°C° 0.1 mm 6 mps 673 mmHg 46%
    11:00 +23°C° 0.1 mm 7 mps 672 mmHg 43%
    12:00 +24°C° 0.1 mm 7 mps 672 mmHg 41%
    13:00 +24°C° 0 mm 7 mps 672 mmHg 41%
    14:00 +24°C° 0 mm 7 mps 671 mmHg 40%
    15:00 +24°C° 0 mm 7 mps 671 mmHg 40%
    16:00 +23°C° 0.3 mm 5 mps 670 mmHg 45%
    17:00 +21°C° 0.3 mm 4 mps 670 mmHg 51%
    18:00 +20°C° 0.3 mm 3 mps 669 mmHg 56%
    19:00 +19°C° 0.2 mm 2 mps 670 mmHg 59%
    20:00 +19°C° 0.2 mm 2 mps 670 mmHg 62%
    21:00 +19°C° 0.2 mm 1 mps 670 mmHg 65%
    22:00 +19°C° 0.3 mm 1 mps 670 mmHg 66%
    23:00 +19°C° 0.3 mm 1 mps 669 mmHg 67%

    Tomorrow, 30 May, Saturday

    Time Temperature Precipitation Wind Pressure Humidity
    00:00 +17°C° 0.3 mm 2 mps 669 mmHg 68%
    01:00 +17°C° 0.2 mm 2 mps 669 mmHg 70%
    02:00 +17°C° 0.2 mm 2 mps 669 mmHg 72%
    03:00 +16°C° 0.2 mm 2 mps 668 mmHg 73%
    04:00 +17°C° 0.1 mm 2 mps 669 mmHg 70%
    05:00 +17°C° 0.1 mm 2 mps 669 mmHg 67%
    06:00 +18°C° 0.1 mm 2 mps 669 mmHg 64%
    07:00 +19°C° 0 mm 2 mps 669 mmHg 61%
    08:00 +20°C° 0 mm 2 mps 670 mmHg 57%
    09:00 +21°C° 0 mm 2 mps 670 mmHg 54%
    10:00 +23°C° 0.4 mm 2 mps 670 mmHg 52%
    11:00 +23°C° 0.4 mm 2 mps 670 mmHg 50%
    12:00 +24°C° 0.4 mm 3 mps 670 mmHg 49%
    13:00 +24°C° 0.5 mm 3 mps 670 mmHg 48%
    14:00 +24°C° 0.5 mm 3 mps 670 mmHg 46%
    15:00 +24°C° 0.5 mm 3 mps 670 mmHg 45%
    16:00 +23°C° 0.1 mm 4 mps 670 mmHg 45%
    17:00 +22°C° 0.1 mm 4 mps 670 mmHg 44%
    18:00 +22°C° 0.1 mm 4 mps 669 mmHg 44%
    19:00 +20°C° 0 mm 4 mps 670 mmHg 49%
    20:00 +19°C° 0 mm 3 mps 670 mmHg 55%
    21:00 +18°C° 0 mm 3 mps 670 mmHg 60%
    22:00 +17°C° 0 mm 2 mps 670 mmHg 63%
    23:00 +17°C° 0 mm 2 mps 670 mmHg 66%

    Day after tomorrow, 31 May, Sunday

    Time Temperature Precipitation Wind Pressure Humidity
    00:00 +16°C° 0 mm 1 mps 670 mmHg 68%
    01:00 +16°C° 0 mm 1 mps 669 mmHg 69%
    02:00 +16°C° 0 mm 1 mps 669 mmHg 69%
    03:00 +16°C° 0 mm 1 mps 669 mmHg 70%
    04:00 +16°C° 0 mm 1 mps 669 mmHg 66%
    05:00 +18°C° 0 mm 1 mps 670 mmHg 62%
    06:00 +19°C° 0 mm 1 mps 670 mmHg 58%
    07:00 +20°C° 0 mm 2 mps 671 mmHg 52%
    08:00 +21°C° 0 mm 2 mps 671 mmHg 46%
    09:00 +24°C° 0 mm 3 mps 672 mmHg 40%
    10:00 +25°C° 0 mm 3 mps 672 mmHg 37%
    11:00 +26°C° 0 mm 4 mps 672 mmHg 33%
    12:00 +27°C° 0 mm 5 mps 672 mmHg 30%
    13:00 +28°C° 0 mm 5 mps 672 mmHg 30%
    14:00 +28°C° 0 mm 5 mps 672 mmHg 30%
    15:00 +28°C° 0 mm 5 mps 671 mmHg 30%
    16:00 +28°C° 0 mm 5 mps 671 mmHg 33%
    17:00 +27°C° 0 mm 5 mps 671 mmHg 36%
    18:00 +26°C° 0 mm 5 mps 671 mmHg 39%
    19:00 +25°C° 0 mm 5 mps 671 mmHg 42%
    20:00 +23°C° 0 mm 4 mps 671 mmHg 45%
    21:00 +22°C° 0 mm 3 mps 671 mmHg 49%
    22:00 +21°C° 0 mm 3 mps 671 mmHg 53%
    23:00 +21°C° 0 mm 2 mps 670 mmHg 57%

    1 June, Monday

    Time Temperature Precipitation Wind Pressure Humidity
    00:00 +20°C° 0 mm 2 mps 670 mmHg 61%
    01:00 +20°C° 0 mm 2 mps 670 mmHg 62%
    02:00 +19°C° 0 mm 2 mps 670 mmHg 63%
    03:00 +19°C° 0 mm 2 mps 670 mmHg 65%
    04:00 +20°C° 0 mm 2 mps 670 mmHg 61%
    05:00 +20°C° 0 mm 2 mps 670 mmHg 58%
    06:00 +21°C° 0 mm 2 mps 670 mmHg 54%
    07:00 +22°C° 0.1 mm 3 mps 670 mmHg 51%
    08:00 +25°C° 0.1 mm 4 mps 671 mmHg 47%
    09:00 +26°C° 0.1 mm 5 mps 671 mmHg 43%
    10:00 +27°C° 0 mm 5 mps 671 mmHg 41%
    11:00 +28°C° 0 mm 5 mps 671 mmHg 39%
    12:00 +29°C° 0 mm 5 mps 671 mmHg 37%
    13:00 +28°C° 0 mm 5 mps 671 mmHg 38%
    14:00 +28°C° 0 mm 5 mps 671 mmHg 38%
    15:00 +28°C° 0 mm 5 mps 671 mmHg 39%
    16:00 +26°C° 0.8 mm 4 mps 670 mmHg 45%
    17:00 +25°C° 0.8 mm 4 mps 670 mmHg 52%
    18:00 +22°C° 0.8 mm 3 mps 669 mmHg 58%
    19:00 +23°C° 0.2 mm 2 mps 669 mmHg 61%
    20:00 +21°C° 0.2 mm 2 mps 670 mmHg 63%
    21:00 +20°C° 0.2 mm 2 mps 670 mmHg 66%
    22:00 +20°C° 0 mm 2 mps 669 mmHg 65%
    23:00 +19°C° 0 mm 2 mps 669 mmHg 65%

    2 June, Tuesday

    Time Temperature Precipitation Wind Pressure Humidity
    00:00 +20°C° 0 mm 1 mps 669 mmHg 64%
    01:00 +19°C° 0 mm 1 mps 669 mmHg 63%
    02:00 +19°C° 0 mm 1 mps 668 mmHg 62%
    03:00 +16°C° 0 mm 0 mps 668 mmHg 61%
    04:00 +20°C° 0 mm 1 mps 669 mmHg 56%
    05:00 +21°C° 0 mm 1 mps 669 mmHg 51%
    06:00 +22°C° 0 mm 1 mps 669 mmHg 46%
    07:00 +23°C° 0 mm 1 mps 670 mmHg 42%
    08:00 +24°C° 0 mm 2 mps 670 mmHg 39%
    09:00 +26°C° 0 mm 2 mps 671 mmHg 36%
    10:00 +27°C° 0 mm 3 mps 671 mmHg 33%
    11:00 +28°C° 0 mm 3 mps 671 mmHg 30%
    12:00 +29°C° 0 mm 4 mps 671 mmHg 27%
    13:00 +29°C° 0 mm 4 mps 670 mmHg 26%
    14:00 +29°C° 0 mm 5 mps 670 mmHg 25%
    15:00 +30°C° 0 mm 5 mps 670 mmHg 24%
    16:00 +29°C° 0 mm 5 mps 669 mmHg 24%
    17:00 +29°C° 0 mm 4 mps 669 mmHg 24%
    18:00 +28°C° 0 mm 4 mps 668 mmHg 24%
    19:00 +27°C° 0 mm 3 mps 668 mmHg 28%
    20:00 +25°C° 0 mm 2 mps 668 mmHg 31%
    21:00 +24°C° 0 mm 1 mps 668 mmHg 35%
    22:00 +24°C° 0 mm 1 mps 667 mmHg 37%
    23:00 +23°C° 0 mm 1 mps 667 mmHg 38%

    3 June, Wednesday

    Time Temperature Precipitation Wind Pressure Humidity
    00:00 +23°C° 0 mm 1 mps 667 mmHg 40%
    01:00 +21°C° 0 mm 2 mps 666 mmHg 41%
    02:00 +21°C° 0 mm 2 mps 666 mmHg 43%
    03:00 +20°C° 0 mm 3 mps 666 mmHg 44%
    04:00 +21°C° 0 mm 2 mps 666 mmHg 43%
    05:00 +23°C° 0 mm 2 mps 667 mmHg 42%
    06:00 +23°C° 0 mm 2 mps 667 mmHg 42%
    07:00 +25°C° 0 mm 3 mps 668 mmHg 38%
    08:00 +26°C° 0 mm 4 mps 668 mmHg 35%
    09:00 +28°C° 0 mm 5 mps 669 mmHg 31%
    10:00 +29°C° 0 mm 6 mps 669 mmHg 30%
    11:00 +30°C° 0 mm 7 mps 669 mmHg 28%
    12:00 +32°C° 0 mm 8 mps 669 mmHg 26%
    13:00 +32°C° 0 mm 7 mps 668 mmHg 27%
    14:00 +32°C° 0 mm 7 mps 668 mmHg 27%
    15:00 +32°C° 0 mm 7 mps 667 mmHg 27%
    16:00 +30°C° 0 mm 5 mps 667 mmHg 29%
    17:00 +30°C° 0 mm 3 mps 667 mmHg 31%
    18:00 +29°C° 0 mm 2 mps 666 mmHg 32%
    19:00 +28°C° 0 mm 2 mps 666 mmHg 36%
    20:00 +26°C° 0 mm 2 mps 666 mmHg 40%
    21:00 +25°C° 0 mm 2 mps 666 mmHg 44%
    22:00 +24°C° 0 mm 2 mps 666 mmHg 46%
    23:00 +24°C° 0 mm 2 mps 666 mmHg 49%
    Show more